| time (UTC) | temp C | wind direction | speed KPH | gust KPH | rain 1hr cm | rain 24hr cm | rain mn cm | humidity % | barometer mb |
| 20260906221041 | 33 | 0 | 1.6 | 12.9 | 0.00 | 0.00 | 0.00 | 32 | 1016.3 |
| 20260906220544 | 33 | 0 | 0.0 | 9.7 | 0.00 | 0.00 | 0.00 | 34 | 1016.4 |
| 20260906220054 | 33 | 170 | 3.2 | 9.7 | 0.00 | 0.00 | 0.00 | 32 | 1016.4 |
| 20260906215542 | 33 | 0 | 1.6 | 11.3 | 0.00 | 0.00 | 0.00 | 32 | 1016.5 |
| 20260906215042 | 34 | 156 | 3.2 | 11.3 | 0.00 | 0.00 | 0.00 | 30 | 1016.6 |
| 20260906214559 | 34 | 195 | 1.6 | 8.0 | 0.00 | 0.00 | 0.00 | 31 | 1016.6 |
| 20260906214041 | 34 | 79 | 0.0 | 8.0 | 0.00 | 0.00 | 0.00 | 32 | 1016.7 |
| 20260906213542 | 33 | 42 | 1.6 | 6.4 | 0.00 | 0.00 | 0.00 | 31 | 1016.7 |
| 20260906213055 | 33 | 185 | 0.0 | 3.2 | 0.00 | 0.00 | 0.00 | 32 | 1016.7 |
| 20260906212545 | 33 | 63 | 0.0 | 9.7 | 0.00 | 0.00 | 0.00 | 34 | 1016.8 |
| 20260906212041 | 33 | 0 | 3.2 | 9.7 | 0.00 | 0.00 | 0.00 | 33 | 1016.8 |
| 20260906211555 | 33 | 153 | 1.6 | 16.1 | 0.00 | 0.00 | 0.00 | 34 | 1016.8 |
| 20260906211045 | 33 | 44 | 4.8 | 16.1 | 0.00 | 0.00 | 0.00 | 32 | 1016.8 |
| 20260906210546 | 33 | 248 | 1.6 | 8.0 | 0.00 | 0.00 | 0.00 | 30 | 1017.0 |
| 20260906210107 | 33 | 227 | 0.0 | 8.0 | 0.00 | 0.00 | 0.00 | 29 | 1017.1 |
| 20260906205546 | 34 | 0 | 0.0 | 6.4 | 0.00 | 0.00 | 0.00 | 31 | 1017.2 |
| 20260906205044 | 34 | 0 | 1.6 | 17.7 | 0.00 | 0.00 | 0.00 | 30 | 1017.1 |
| 20260906204601 | 34 | 0 | 3.2 | 17.7 | 0.00 | 0.00 | 0.00 | 30 | 1017.2 |
| 20260906204045 | 34 | 215 | 0.0 | 4.8 | 0.00 | 0.00 | 0.00 | 30 | 1017.3 |
| 20260906203542 | 34 | 0 | 0.0 | 4.8 | 0.00 | 0.00 | 0.00 | 30 | 1017.5 |
| 20260906203054 | 33 | 128 | 0.0 | 8.0 | 0.00 | 0.00 | 0.00 | 33 | 1017.5 |
| 20260906202544 | 33 | 0 | 1.6 | 8.0 | 0.00 | 0.00 | 0.00 | 35 | 1017.5 |
| 20260906202046 | 33 | 40 | 3.2 | 8.0 | 0.00 | 0.00 | 0.00 | 32 | 1017.5 |
| 20260906201633 | 32 | 270 | 0.0 | 16.1 | 0.00 | 0.00 | 0.00 | 32 | 1017.6 |
| 20260906201045 | 32 | 138 | 1.6 | 16.1 | 0.00 | 0.00 | 0.00 | 32 | 1017.7 |
| 20260906200545 | 33 | 229 | 1.6 | 8.0 | 0.00 | 0.00 | 0.00 | 31 | 1017.7 |
| 20260906200059 | 33 | 60 | 0.0 | 6.4 | 0.00 | 0.00 | 0.00 | 33 | 1017.9 |
| 20260906195544 | 32 | 320 | 0.0 | 9.7 | 0.00 | 0.00 | 0.00 | 33 | 1018.0 |
| 20260906195045 | 32 | 77 | 1.6 | 9.7 | 0.00 | 0.00 | 0.00 | 34 | 1018.1 |
| 20260906194606 | 32 | 75 | 3.2 | 9.7 | 0.00 | 0.00 | 0.00 | 35 | 1018.2 |
| 20260906194046 | 32 | 60 | 0.0 | 6.4 | 0.00 | 0.00 | 0.00 | 35 | 1018.3 |
| 20260906193544 | 32 | 0 | 0.0 | 6.4 | 0.00 | 0.00 | 0.00 | 36 | 1018.4 |
| 20260906193056 | 32 | 21 | 0.0 | 4.8 | 0.00 | 0.00 | 0.00 | 36 | 1018.5 |
| 20260906192545 | 32 | 0 | 0.0 | 6.4 | 0.00 | 0.00 | 0.00 | 33 | 1018.6 |
| 20260906192048 | 32 | 199 | 1.6 | 8.0 | 0.00 | 0.00 | 0.00 | 36 | 1018.6 |
| 20260906191606 | 32 | 67 | 1.6 | 8.0 | 0.00 | 0.00 | 0.00 | 36 | 1018.8 |
| 20260906191044 | 32 | 163 | 1.6 | 8.0 | 0.00 | 0.00 | 0.00 | 35 | 1018.8 |
| 20260906190545 | 31 | 0 | 1.6 | 6.4 | 0.00 | 0.00 | 0.00 | 36 | 1018.8 |
| 20260906190058 | 31 | 44 | 1.6 | 4.8 | 0.00 | 0.00 | 0.00 | 37 | 1018.9 |
| 20260906185548 | 31 | 265 | 0.0 | 4.8 | 0.00 | 0.00 | 0.00 | 35 | 1019.1 |
| 20260906185044 | 31 | 0 | 0.0 | 4.8 | 0.00 | 0.00 | 0.00 | 37 | 1019.3 |
| 20260906184559 | 30 | 64 | 0.0 | 12.9 | 0.00 | 0.00 | 0.00 | 38 | 1019.3 |
| 20260906184044 | 30 | 236 | 1.6 | 9.7 | 0.00 | 0.00 | 0.00 | 38 | 1019.5 |
| 20260906183546 | 30 | 68 | 1.6 | 4.8 | 0.00 | 0.00 | 0.00 | 40 | 1019.6 |
| 20260906183057 | 30 | 0 | 0.0 | 8.0 | 0.00 | 0.00 | 0.00 | 40 | 1019.6 |
| 20260906182549 | 30 | 315 | 0.0 | 8.0 | 0.00 | 0.00 | 0.00 | 39 | 1019.7 |
| 20260906182049 | 30 | 165 | 1.6 | 4.8 | 0.00 | 0.00 | 0.00 | 40 | 1019.8 |
| 20260906181604 | 30 | 0 | 0.0 | 6.4 | 0.00 | 0.00 | 0.00 | 43 | 1019.8 |
| 20260906181045 | 30 | 89 | 0.0 | 6.4 | 0.00 | 0.00 | 0.00 | 40 | 1019.9 |
| 20260906180542 | 29 | 202 | 0.0 | 6.4 | 0.00 | 0.00 | 0.00 | 43 | 1020.0 |
| 20260906180055 | 28 | 0 | 0.0 | 6.4 | 0.00 | 0.00 | 0.00 | 45 | 1020.0 |
| 20260906175541 | 29 | 89 | 1.6 | 6.4 | 0.00 | 0.00 | 0.00 | 43 | 1020.2 |
| 20260906175041 | 28 | 0 | 0.0 | 3.2 | 0.00 | 0.00 | 0.00 | 45 | 1020.5 |
| 20260906174554 | 28 | 263 | 0.0 | 3.2 | 0.00 | 0.00 | 0.00 | 45 | 1020.5 |
| 20260906174041 | 28 | 0 | 0.0 | 4.8 | 0.00 | 0.00 | 0.00 | 45 | 1020.6 |
| 20260906173542 | 28 | 0 | 0.0 | 4.8 | 0.00 | 0.00 | 0.00 | 45 | 1020.8 |
| 20260906173056 | 28 | 265 | 1.6 | 4.8 | 0.00 | 0.00 | 0.00 | 45 | 1020.8 |
| 20260906172540 | 28 | 61 | 0.0 | 6.4 | 0.00 | 0.00 | 0.00 | 45 | 1020.9 |
| 20260906172041 | 27 | 0 | 1.6 | 6.4 | 0.00 | 0.00 | 0.00 | 46 | 1020.9 |
| 20260906171555 | 27 | 0 | 1.6 | 4.8 | 0.00 | 0.00 | 0.00 | 49 | 1021.0 |
| 20260906171041 | 27 | 0 | 0.0 | 6.4 | 0.00 | 0.00 | 0.00 | 46 | 1021.1 |
| 20260906170541 | 27 | 65 | 0.0 | 6.4 | 0.00 | 0.00 | 0.00 | 47 | 1021.2 |
| 20260906170055 | 26 | 74 | 0.0 | 4.8 | 0.00 | 0.00 | 0.00 | 49 | 1021.3 |
| 20260906165541 | 26 | 0 | 0.0 | 8.0 | 0.00 | 0.00 | 0.00 | 52 | 1021.3 |
| 20260906165041 | 26 | 0 | 1.6 | 8.0 | 0.00 | 0.00 | 0.00 | 52 | 1021.4 |
| 20260906164556 | 25 | 0 | 0.0 | 3.2 | 0.00 | 0.00 | 0.00 | 53 | 1021.4 |
| 20260906164041 | 25 | 0 | 0.0 | 3.2 | 0.00 | 0.00 | 0.00 | 53 | 1021.4 |
| 20260906163541 | 25 | 0 | 0.0 | 4.8 | 0.00 | 0.00 | 0.00 | 54 | 1021.4 |
| 20260906163101 | 25 | 317 | 0.0 | 4.8 | 0.00 | 0.00 | 0.00 | 57 | 1021.4 |
| 20260906162541 | 24 | 0 | 0.0 | 4.8 | 0.00 | 0.00 | 0.00 | 59 | 1021.4 |
| 20260906162045 | 23 | 0 | 0.0 | 6.4 | 0.00 | 0.00 | 0.00 | 63 | 1021.3 |
| 20260906161607 | 23 | 0 | 1.6 | 6.4 | 0.00 | 0.00 | 0.00 | 63 | 1021.3 |
| 20260906161041 | 22 | 0 | 0.0 | 4.8 | 0.00 | 0.00 | 0.00 | 66 | 1021.4 |
| 20260906160541 | 22 | 42 | 0.0 | 4.8 | 0.00 | 0.00 | 0.00 | 67 | 1021.4 |
| 20260906160058 | 22 | 104 | 0.0 | 4.8 | 0.00 | 0.00 | 0.00 | 68 | 1021.4 |
| 20260906155541 | 21 | 252 | 0.0 | 4.8 | 0.00 | 0.00 | 0.00 | 69 | 1021.3 |
| 20260906155041 | 21 | 0 | 0.0 | 4.8 | 0.00 | 0.00 | 0.00 | 71 | 1021.2 |
| 20260906154552 | 21 | 0 | 0.0 | 0.0 | 0.00 | 0.00 | 0.00 | 73 | 1021.3 |
| 20260906154041 | 21 | 0 | 0.0 | 0.0 | 0.00 | 0.00 | 0.00 | 73 | 1021.3 |
| 20260906153542 | 20 | 0 | 0.0 | 0.0 | 0.00 | 0.00 | 0.00 | 74 | 1021.4 |
| 20260906153059 | 20 | 0 | 0.0 | 0.0 | 0.00 | 0.00 | 0.00 | 74 | 1021.4 |
| 20260906152541 | 20 | 0 | 0.0 | 0.0 | 0.00 | 0.00 | 0.00 | 75 | 1021.6 |
| 20260906152046 | 20 | 0 | 0.0 | 0.0 | 0.00 | 0.00 | 0.00 | 76 | 1021.6 |
| 20260906151557 | 20 | 0 | 0.0 | 0.0 | 0.00 | 0.00 | 0.00 | 76 | 1021.5 |
| 20260906151040 | 20 | 0 | 0.0 | 0.0 | 0.00 | 0.00 | 0.00 | 76 | 1021.5 |
| 20260906150544 | 19 | 0 | 0.0 | 0.0 | 0.00 | 0.00 | 0.00 | 78 | 1021.5 |
| 20260906150055 | 19 | 0 | 0.0 | 0.0 | 0.00 | 0.00 | 0.00 | 78 | 1021.6 |
| 20260906145541 | 19 | 0 | 0.0 | 0.0 | 0.00 | 0.00 | 0.00 | 79 | 1021.6 |
| 20260906145041 | 18 | 0 | 0.0 | 0.0 | 0.00 | 0.00 | 0.00 | 79 | 1021.5 |
| 20260906144551 | 18 | 0 | 0.0 | 0.0 | 0.00 | 0.00 | 0.00 | 80 | 1021.5 |
| 20260906144043 | 18 | 0 | 0.0 | 0.0 | 0.00 | 0.00 | 0.00 | 81 | 1021.4 |
| 20260906143541 | 18 | 0 | 0.0 | 0.0 | 0.00 | 0.00 | 0.00 | 81 | 1021.4 |
| 20260906143059 | 18 | 0 | 0.0 | 0.0 | 0.00 | 0.00 | 0.00 | 82 | 1021.5 |
| 20260906142540 | 18 | 0 | 0.0 | 0.0 | 0.00 | 0.00 | 0.00 | 82 | 1021.5 |
| 20260906142042 | 18 | 0 | 0.0 | 1.6 | 0.00 | 0.00 | 0.00 | 83 | 1021.5 |
| 20260906141558 | 17 | 0 | 0.0 | 4.8 | 0.00 | 0.00 | 0.00 | 84 | 1021.5 |
| 20260906141042 | 17 | 0 | 0.0 | 4.8 | 0.00 | 0.00 | 0.00 | 84 | 1021.5 |
| 20260906140541 | 17 | 0 | 0.0 | 3.2 | 0.00 | 0.00 | 0.00 | 85 | 1021.6 |
| 20260906140104 | 17 | 0 | 0.0 | 3.2 | 0.00 | 0.00 | 0.00 | 85 | 1021.6 |
| 20260906135541 | 17 | 0 | 0.0 | 3.2 | 0.00 | 0.00 | 0.00 | 85 | 1021.6 |
| 20260906135041 | 17 | 0 | 0.0 | 3.2 | 0.00 | 0.00 | 0.00 | 86 | 1021.4 |
| 20260906134610 | 16 | 259 | 0.0 | 3.2 | 0.00 | 0.00 | 0.00 | 86 | 1021.4 |
| 20260906134041 | 16 | 0 | 0.0 | 3.2 | 0.00 | 0.00 | 0.00 | 86 | 1021.5 |
| 20260906133541 | 16 | 0 | 0.0 | 3.2 | 0.00 | 0.00 | 0.00 | 87 | 1021.4 |
| 20260906133101 | 16 | 0 | 0.0 | 1.6 | 0.00 | 0.00 | 0.00 | 86 | 1021.4 |
| 20260906132547 | 16 | 0 | 0.0 | 0.0 | 0.00 | 0.00 | 0.00 | 85 | 1021.3 |
| 20260906132043 | 16 | 0 | 0.0 | 0.0 | 0.00 | 0.00 | 0.00 | 85 | 1021.2 |
| 20260906131556 | 16 | 0 | 0.0 | 0.0 | 0.00 | 0.00 | 0.00 | 85 | 1021.2 |
| 20260906131040 | 15 | 0 | 0.0 | 0.0 | 0.00 | 0.00 | 0.00 | 85 | 1021.1 |
| 20260906130542 | 15 | 0 | 0.0 | 0.0 | 0.00 | 0.00 | 0.00 | 84 | 1021.1 |
| 20260906130108 | 15 | 0 | 0.0 | 0.0 | 0.00 | 0.00 | 0.00 | 84 | 1021.0 |
| 20260906125544 | 15 | 0 | 0.0 | 0.0 | 0.00 | 0.00 | 0.00 | 84 | 1021.0 |
| 20260906125043 | 16 | 0 | 0.0 | 0.0 | 0.00 | 0.00 | 0.00 | 84 | 1020.9 |
| 20260906124605 | 16 | 0 | 0.0 | 0.0 | 0.00 | 0.00 | 0.00 | 83 | 1020.8 |
| 20260906124044 | 16 | 0 | 0.0 | 1.6 | 0.00 | 0.00 | 0.00 | 83 | 1020.7 |
| 20260906123540 | 16 | 0 | 0.0 | 1.6 | 0.00 | 0.00 | 0.00 | 83 | 1020.9 |
| 20260906123057 | 16 | 0 | 0.0 | 1.6 | 0.00 | 0.00 | 0.00 | 82 | 1020.8 |
| 20260906122541 | 16 | 0 | 0.0 | 0.0 | 0.00 | 0.00 | 0.00 | 82 | 1020.9 |
| 20260906122041 | 16 | 0 | 0.0 | 0.0 | 0.00 | 0.00 | 0.00 | 81 | 1020.9 |
| 20260906121606 | 16 | 0 | 0.0 | 0.0 | 0.00 | 0.00 | 0.00 | 81 | 1021.0 |
| 20260906121041 | 16 | 0 | 0.0 | 0.0 | 0.00 | 0.00 | 0.00 | 80 | 1020.9 |
| 20260906120541 | 16 | 0 | 0.0 | 0.0 | 0.00 | 0.00 | 0.00 | 80 | 1020.8 |
| 20260906120101 | 16 | 0 | 0.0 | 0.0 | 0.00 | 0.00 | 0.00 | 79 | 1020.8 |
| 20260906115545 | 16 | 0 | 0.0 | 0.0 | 0.00 | 0.00 | 0.00 | 79 | 1020.9 |
| 20260906115044 | 16 | 0 | 0.0 | 0.0 | 0.00 | 0.00 | 0.00 | 78 | 1020.8 |
| 20260906114607 | 16 | 0 | 0.0 | 0.0 | 0.00 | 0.00 | 0.00 | 78 | 1020.8 |
| 20260906114044 | 16 | 0 | 0.0 | 0.0 | 0.00 | 0.00 | 0.00 | 77 | 1020.8 |
| 20260906113545 | 16 | 0 | 0.0 | 0.0 | 0.00 | 0.00 | 0.00 | 77 | 1020.8 |
| 20260906113107 | 16 | 0 | 0.0 | 0.0 | 0.00 | 0.00 | 0.00 | 76 | 1020.8 |
| 20260906112545 | 16 | 0 | 0.0 | 0.0 | 0.00 | 0.00 | 0.00 | 76 | 1020.7 |
| 20260906112045 | 16 | 0 | 0.0 | 0.0 | 0.00 | 0.00 | 0.00 | 75 | 1020.7 |
| 20260906111551 | 16 | 0 | 0.0 | 0.0 | 0.00 | 0.00 | 0.00 | 75 | 1020.7 |
| 20260906111045 | 16 | 0 | 0.0 | 0.0 | 0.00 | 0.00 | 0.00 | 74 | 1020.7 |
| 20260906110545 | 17 | 0 | 0.0 | 0.0 | 0.00 | 0.00 | 0.00 | 73 | 1020.7 |
| 20260906110057 | 17 | 0 | 0.0 | 0.0 | 0.00 | 0.00 | 0.00 | 72 | 1020.7 |
| 20260906105545 | 17 | 0 | 0.0 | 0.0 | 0.00 | 0.00 | 0.00 | 71 | 1020.7 |
| 20260906105048 | 17 | 0 | 0.0 | 0.0 | 0.00 | 0.00 | 0.00 | 71 | 1020.6 |
| 20260906104556 | 17 | 0 | 0.0 | 0.0 | 0.00 | 0.00 | 0.00 | 70 | 1020.4 |
| 20260906104045 | 17 | 0 | 0.0 | 0.0 | 0.00 | 0.00 | 0.00 | 68 | 1020.4 |
| 20260906103546 | 17 | 0 | 0.0 | 0.0 | 0.00 | 0.00 | 0.00 | 68 | 1020.4 |
| 20260906103052 | 17 | 0 | 0.0 | 0.0 | 0.00 | 0.00 | 0.00 | 67 | 1020.4 |
| 20260906102544 | 17 | 0 | 0.0 | 0.0 | 0.00 | 0.00 | 0.00 | 66 | 1020.3 |
| 20260906102048 | 17 | 0 | 0.0 | 0.0 | 0.00 | 0.00 | 0.00 | 66 | 1020.1 |
| 20260906101559 | 17 | 0 | 0.0 | 1.6 | 0.00 | 0.00 | 0.00 | 65 | 1020.2 |
| 20260906101049 | 17 | 0 | 0.0 | 3.2 | 0.00 | 0.00 | 0.00 | 64 | 1020.4 |
| 20260906100545 | 18 | 0 | 0.0 | 3.2 | 0.00 | 0.00 | 0.00 | 64 | 1020.4 |
| 20260906100056 | 17 | 0 | 0.0 | 0.0 | 0.00 | 0.00 | 0.00 | 65 | 1020.4 |
| 20260906095545 | 17 | 0 | 0.0 | 0.0 | 0.00 | 0.00 | 0.00 | 65 | 1020.4 |
| 20260906095045 | 18 | 0 | 0.0 | 0.0 | 0.00 | 0.00 | 0.00 | 66 | 1020.3 |
| 20260906094557 | 18 | 0 | 0.0 | 0.0 | 0.00 | 0.00 | 0.00 | 65 | 1020.4 |
| 20260906094044 | 18 | 0 | 0.0 | 0.0 | 0.00 | 0.00 | 0.00 | 65 | 1020.3 |
| 20260906093545 | 18 | 0 | 0.0 | 0.0 | 0.00 | 0.00 | 0.00 | 65 | 1020.3 |
| 20260906093057 | 18 | 0 | 0.0 | 0.0 | 0.00 | 0.00 | 0.00 | 65 | 1020.2 |
| 20260906092545 | 18 | 0 | 0.0 | 0.0 | 0.00 | 0.00 | 0.00 | 65 | 1020.3 |
| 20260906092046 | 18 | 0 | 0.0 | 1.6 | 0.00 | 0.00 | 0.00 | 64 | 1020.3 |
| 20260906091551 | 18 | 0 | 0.0 | 1.6 | 0.00 | 0.00 | 0.00 | 64 | 1020.3 |
| 20260906091045 | 18 | 0 | 0.0 | 0.0 | 0.00 | 0.00 | 0.00 | 63 | 1020.1 |
| 20260906090544 | 18 | 0 | 0.0 | 0.0 | 0.00 | 0.00 | 0.00 | 62 | 1020.0 |
| 20260906090049 | 18 | 0 | 0.0 | 0.0 | 0.00 | 0.00 | 0.00 | 62 | 1020.0 |
| 20260906085545 | 19 | 0 | 0.0 | 0.0 | 0.00 | 0.00 | 0.00 | 62 | 1019.9 |
| 20260906085044 | 19 | 0 | 0.0 | 0.0 | 0.00 | 0.00 | 0.00 | 61 | 1020.0 |
| 20260906084557 | 19 | 0 | 0.0 | 0.0 | 0.00 | 0.00 | 0.00 | 61 | 1019.9 |
| 20260906084045 | 19 | 0 | 0.0 | 3.2 | 0.00 | 0.00 | 0.00 | 60 | 1019.8 |
| 20260906083543 | 19 | 0 | 0.0 | 3.2 | 0.00 | 0.00 | 0.00 | 60 | 1019.9 |
| 20260906083055 | 20 | 0 | 0.0 | 0.0 | 0.00 | 0.00 | 0.00 | 59 | 1019.9 |
| 20260906082541 | 20 | 0 | 0.0 | 0.0 | 0.00 | 0.00 | 0.00 | 59 | 1020.0 |
| 20260906082041 | 20 | 0 | 0.0 | 0.0 | 0.00 | 0.00 | 0.00 | 58 | 1020.0 |
| 20260906081555 | 20 | 0 | 0.0 | 0.0 | 0.00 | 0.00 | 0.00 | 57 | 1020.2 |
| 20260906081045 | 20 | 0 | 0.0 | 0.0 | 0.00 | 0.00 | 0.00 | 57 | 1020.2 |
| 20260906080543 | 20 | 0 | 0.0 | 0.0 | 0.00 | 0.00 | 0.00 | 56 | 1020.3 |
| 20260906080106 | 20 | 0 | 0.0 | 0.0 | 0.00 | 0.00 | 0.00 | 56 | 1020.2 |
| 20260906075541 | 21 | 0 | 0.0 | 0.0 | 0.00 | 0.00 | 0.00 | 54 | 1020.2 |
| 20260906075040 | 21 | 0 | 0.0 | 0.0 | 0.00 | 0.00 | 0.00 | 54 | 1020.0 |
| 20260906074556 | 21 | 0 | 0.0 | 0.0 | 0.00 | 0.00 | 0.00 | 54 | 1020.0 |
| 20260906074040 | 21 | 0 | 0.0 | 4.8 | 0.00 | 0.00 | 0.00 | 53 | 1019.9 |
| 20260906073541 | 21 | 0 | 0.0 | 4.8 | 0.00 | 0.00 | 0.00 | 53 | 1019.8 |
| 20260906073057 | 21 | 0 | 0.0 | 4.8 | 0.00 | 0.00 | 0.00 | 52 | 1019.8 |
| 20260906072547 | 21 | 0 | 0.0 | 4.8 | 0.00 | 0.00 | 0.00 | 51 | 1019.7 |
| 20260906072042 | 21 | 290 | 0.0 | 3.2 | 0.00 | 0.00 | 0.00 | 51 | 1019.7 |
| 20260906071554 | 21 | 0 | 0.0 | 3.2 | 0.00 | 0.00 | 0.00 | 51 | 1019.7 |
| 20260906071041 | 22 | 184 | 0.0 | 1.6 | 0.00 | 0.00 | 0.00 | 50 | 1019.7 |
| 20260906070543 | 22 | 0 | 0.0 | 1.6 | 0.00 | 0.00 | 0.00 | 49 | 1019.5 |
| 20260906070057 | 22 | 0 | 0.0 | 1.6 | 0.00 | 0.00 | 0.00 | 48 | 1019.5 |
| 20260906065543 | 22 | 0 | 0.0 | 3.2 | 0.00 | 0.00 | 0.00 | 48 | 1019.5 |
| 20260906065041 | 22 | 0 | 0.0 | 6.4 | 0.00 | 0.00 | 0.00 | 48 | 1019.4 |
| 20260906064555 | 22 | 259 | 0.0 | 6.4 | 0.00 | 0.00 | 0.00 | 48 | 1019.5 |
| 20260906064040 | 22 | 258 | 0.0 | 4.8 | 0.00 | 0.00 | 0.00 | 47 | 1019.6 |
| 20260906063544 | 22 | 265 | 0.0 | 1.6 | 0.00 | 0.00 | 0.00 | 47 | 1019.7 |
| 20260906063057 | 22 | 0 | 0.0 | 1.6 | 0.00 | 0.00 | 0.00 | 46 | 1019.7 |
| 20260906062542 | 22 | 0 | 0.0 | 0.0 | 0.00 | 0.00 | 0.00 | 46 | 1019.8 |
| 20260906062044 | 22 | 0 | 0.0 | 0.0 | 0.00 | 0.00 | 0.00 | 45 | 1019.8 |
| 20260906061556 | 22 | 0 | 0.0 | 1.6 | 0.00 | 0.00 | 0.00 | 45 | 1020.0 |
| 20260906061040 | 22 | 0 | 0.0 | 3.2 | 0.00 | 0.00 | 0.00 | 44 | 1020.0 |
| 20260906060543 | 22 | 0 | 0.0 | 6.4 | 0.00 | 0.00 | 0.00 | 44 | 1020.3 |
| 20260906060133 | 22 | 0 | 1.6 | 6.4 | 0.00 | 0.00 | 0.00 | 45 | 1020.3 |
| 20260906055541 | 22 | 136 | 0.0 | 3.2 | 0.00 | 0.00 | 0.00 | 46 | 1020.4 |
| 20260906055041 | 22 | 0 | 0.0 | 3.2 | 0.00 | 0.00 | 0.00 | 46 | 1020.4 |
| 20260906054550 | 22 | 0 | 0.0 | 3.2 | 0.00 | 0.00 | 0.00 | 47 | 1020.4 |
| 20260906054041 | 22 | 0 | 0.0 | 1.6 | 0.00 | 0.00 | 0.00 | 45 | 1020.3 |
| 20260906053545 | 22 | 0 | 0.0 | 0.0 | 0.00 | 0.00 | 0.00 | 46 | 1020.3 |
| 20260906053055 | 22 | 0 | 0.0 | 0.0 | 0.00 | 0.00 | 0.00 | 46 | 1020.3 |
| 20260906052544 | 22 | 0 | 0.0 | 0.0 | 0.00 | 0.00 | 0.00 | 46 | 1020.4 |
| 20260906052045 | 22 | 0 | 0.0 | 0.0 | 0.00 | 0.00 | 0.00 | 46 | 1020.4 |
| 20260906051605 | 22 | 0 | 0.0 | 0.0 | 0.00 | 0.00 | 0.00 | 45 | 1020.4 |
| 20260906051045 | 22 | 0 | 0.0 | 0.0 | 0.00 | 0.00 | 0.00 | 45 | 1020.3 |
| 20260906050544 | 23 | 0 | 0.0 | 0.0 | 0.00 | 0.00 | 0.00 | 44 | 1020.4 |
| 20260906050114 | 23 | 0 | 0.0 | 0.0 | 0.00 | 0.00 | 0.00 | 44 | 1020.4 |
| 20260906045544 | 23 | 0 | 0.0 | 0.0 | 0.00 | 0.00 | 0.00 | 43 | 1020.4 |
| 20260906045045 | 23 | 0 | 0.0 | 0.0 | 0.00 | 0.00 | 0.00 | 43 | 1020.4 |
| 20260906044556 | 23 | 0 | 0.0 | 1.6 | 0.00 | 0.00 | 0.00 | 42 | 1020.5 |
| 20260906044045 | 23 | 0 | 0.0 | 1.6 | 0.00 | 0.00 | 0.00 | 43 | 1020.6 |
| 20260906043544 | 23 | 0 | 0.0 | 4.8 | 0.00 | 0.00 | 0.00 | 42 | 1020.6 |
| 20260906043110 | 23 | 0 | 0.0 | 4.8 | 0.00 | 0.00 | 0.00 | 42 | 1020.6 |
| 20260906042544 | 23 | 0 | 0.0 | 1.6 | 0.00 | 0.00 | 0.00 | 41 | 1020.4 |
| 20260906042044 | 23 | 0 | 0.0 | 6.4 | 0.00 | 0.00 | 0.00 | 40 | 1020.5 |
| 20260906041559 | 23 | 0 | 0.0 | 11.3 | 0.00 | 0.00 | 0.00 | 41 | 1020.5 |
| 20260906041045 | 23 | 0 | 0.0 | 11.3 | 0.00 | 0.00 | 0.00 | 41 | 1020.4 |
| 20260906040545 | 22 | 154 | 3.2 | 9.7 | 0.00 | 0.00 | 0.00 | 42 | 1020.3 |
| 20260906035544 | 22 | 0 | 0.0 | 0.0 | 0.00 | 0.00 | 0.00 | 44 | 1019.5 |
| 20260906035043 | 22 | 0 | 0.0 | 1.6 | 0.00 | 0.00 | 0.00 | 44 | 1019.4 |
| 20260906034601 | 22 | 0 | 0.0 | 1.6 | 0.00 | 0.00 | 0.00 | 44 | 1019.5 |
| 20260906034045 | 22 | 0 | 0.0 | 0.0 | 0.00 | 0.00 | 0.00 | 44 | 1019.5 |
| 20260906033544 | 23 | 0 | 0.0 | 0.0 | 0.00 | 0.00 | 0.00 | 43 | 1019.4 |
| 20260906033054 | 23 | 0 | 0.0 | 0.0 | 0.00 | 0.00 | 0.00 | 43 | 1019.4 |
| 20260906032545 | 23 | 0 | 0.0 | 0.0 | 0.00 | 0.00 | 0.00 | 42 | 1019.4 |
| 20260906032045 | 23 | 0 | 0.0 | 0.0 | 0.00 | 0.00 | 0.00 | 42 | 1019.3 |
| 20260906031609 | 23 | 0 | 0.0 | 0.0 | 0.00 | 0.00 | 0.00 | 41 | 1019.1 |
| 20260906031046 | 23 | 0 | 0.0 | 0.0 | 0.00 | 0.00 | 0.00 | 41 | 1019.1 |
| 20260906030545 | 23 | 0 | 0.0 | 0.0 | 0.00 | 0.00 | 0.00 | 40 | 1019.1 |
| 20260906030056 | 23 | 0 | 0.0 | 0.0 | 0.00 | 0.00 | 0.00 | 39 | 1019.0 |
| 20260906025544 | 24 | 0 | 0.0 | 0.0 | 0.00 | 0.00 | 0.00 | 39 | 1018.8 |
| 20260906025045 | 24 | 0 | 0.0 | 0.0 | 0.00 | 0.00 | 0.00 | 39 | 1018.7 |
| 20260906024556 | 24 | 0 | 0.0 | 0.0 | 0.00 | 0.00 | 0.00 | 40 | 1018.6 |
| 20260906024045 | 25 | 0 | 0.0 | 0.0 | 0.00 | 0.00 | 0.00 | 38 | 1018.6 |
| 20260906023545 | 25 | 0 | 0.0 | 0.0 | 0.00 | 0.00 | 0.00 | 37 | 1018.6 |
| 20260906023109 | 25 | 0 | 0.0 | 0.0 | 0.00 | 0.00 | 0.00 | 38 | 1018.6 |
| 20260906022543 | 25 | 0 | 0.0 | 0.0 | 0.00 | 0.00 | 0.00 | 37 | 1018.6 |
| 20260906022045 | 25 | 0 | 0.0 | 6.4 | 0.00 | 0.00 | 0.00 | 36 | 1018.6 |
| 20260906021558 | 26 | 0 | 0.0 | 6.4 | 0.00 | 0.00 | 0.00 | 35 | 1018.5 |
| 20260906021042 | 26 | 149 | 0.0 | 1.6 | 0.00 | 0.00 | 0.00 | 34 | 1018.5 |
| 20260906020545 | 26 | 0 | 0.0 | 1.6 | 0.00 | 0.00 | 0.00 | 35 | 1018.4 |
| 20260906020059 | 26 | 0 | 0.0 | 0.0 | 0.00 | 0.00 | 0.00 | 34 | 1018.4 |
| 20260906015546 | 27 | 0 | 0.0 | 1.6 | 0.00 | 0.00 | 0.00 | 32 | 1018.2 |
| 20260906015045 | 27 | 0 | 0.0 | 3.2 | 0.00 | 0.00 | 0.00 | 32 | 1018.0 |
| 20260906014553 | 27 | 0 | 0.0 | 4.8 | 0.00 | 0.00 | 0.00 | 32 | 1017.9 |
| 20260906014045 | 27 | 274 | 0.0 | 6.4 | 0.00 | 0.00 | 0.00 | 31 | 1017.9 |
| 20260906013545 | 27 | 0 | 0.0 | 6.4 | 0.00 | 0.00 | 0.00 | 32 | 1017.8 |
| 20260906013058 | 27 | 0 | 0.0 | 1.6 | 0.00 | 0.00 | 0.00 | 34 | 1017.7 |
| 20260906012545 | 27 | 0 | 0.0 | 0.0 | 0.00 | 0.00 | 0.00 | 34 | 1017.6 |
| 20260906012043 | 27 | 0 | 0.0 | 0.0 | 0.00 | 0.00 | 0.00 | 33 | 1017.6 |
| 20260906011603 | 28 | 0 | 0.0 | 0.0 | 0.00 | 0.00 | 0.00 | 32 | 1017.6 |
| 20260906011044 | 28 | 0 | 0.0 | 0.0 | 0.00 | 0.00 | 0.00 | 32 | 1017.6 |
| 20260906010544 | 29 | 0 | 0.0 | 0.0 | 0.00 | 0.00 | 0.00 | 31 | 1017.5 |
| 20260906010059 | 30 | 0 | 0.0 | 0.0 | 0.00 | 0.00 | 0.00 | 30 | 1017.6 |
| 20260906005544 | 31 | 0 | 0.0 | 0.0 | 0.00 | 0.00 | 0.00 | 28 | 1017.6 |
| 20260906005045 | 31 | 0 | 0.0 | 0.0 | 0.00 | 0.00 | 0.00 | 27 | 1017.7 |
| 20260906004602 | 31 | 0 | 0.0 | 1.6 | 0.00 | 0.00 | 0.00 | 26 | 1017.7 |
| 20260906004045 | 32 | 0 | 0.0 | 1.6 | 0.00 | 0.00 | 0.00 | 25 | 1017.6 |
| 20260906003545 | 32 | 0 | 0.0 | 3.2 | 0.00 | 0.00 | 0.00 | 25 | 1017.7 |
| 20260906003058 | 33 | 0 | 0.0 | 3.2 | 0.00 | 0.00 | 0.00 | 23 | 1017.6 |
| 20260906002544 | 33 | 0 | 0.0 | 3.2 | 0.00 | 0.00 | 0.00 | 23 | 1017.6 |
| 20260906002045 | 34 | 0 | 0.0 | 4.8 | 0.00 | 0.00 | 0.00 | 22 | 1017.5 |
| 20260906001554 | 34 | 0 | 0.0 | 4.8 | 0.00 | 0.00 | 0.00 | 24 | 1017.6 |
| 20260906001044 | 34 | 0 | 0.0 | 4.8 | 0.00 | 0.00 | 0.00 | 22 | 1017.5 |
| 20260906000544 | 35 | 272 | 0.0 | 4.8 | 0.00 | 0.00 | 0.00 | 22 | 1017.5 |
| 20260906000105 | 35 | 273 | 0.0 | 3.2 | 0.00 | 0.00 | 0.00 | 21 | 1017.5 |
| 20260905235548 | 35 | 0 | 0.0 | 3.2 | 0.00 | 0.00 | 0.00 | 20 | 1017.5 |
| 20260905235045 | 35 | 42 | 0.0 | 3.2 | 0.00 | 0.00 | 0.00 | 21 | 1017.5 |
| 20260905234554 | 35 | 0 | 0.0 | 1.6 | 0.00 | 0.00 | 0.00 | 22 | 1017.4 |
| 20260905234045 | 35 | 0 | 0.0 | 4.8 | 0.00 | 0.00 | 0.00 | 21 | 1017.4 |
| 20260905233545 | 35 | 0 | 0.0 | 6.4 | 0.00 | 0.00 | 0.00 | 22 | 1017.3 |
| 20260905233102 | 35 | 44 | 0.0 | 6.4 | 0.00 | 0.00 | 0.00 | 23 | 1017.4 |
| 20260905232545 | 35 | 44 | 1.6 | 6.4 | 0.00 | 0.00 | 0.00 | 22 | 1017.4 |
| 20260905232045 | 35 | 0 | 0.0 | 4.8 | 0.00 | 0.00 | 0.00 | 22 | 1017.4 |
| 20260905231605 | 34 | 230 | 0.0 | 6.4 | 0.00 | 0.00 | 0.00 | 20 | 1017.3 |
| 20260905231045 | 34 | 107 | 1.6 | 6.4 | 0.00 | 0.00 | 0.00 | 22 | 1017.4 |
| 20260905230545 | 34 | 0 | 0.0 | 4.8 | 0.00 | 0.00 | 0.00 | 21 | 1017.3 |
| 20260905230104 | 34 | 50 | 0.0 | 6.4 | 0.00 | 0.00 | 0.00 | 23 | 1017.3 |
| 20260905225544 | 34 | 59 | 1.6 | 6.4 | 0.00 | 0.00 | 0.00 | 22 | 1017.3 |
| 20260905225042 | 34 | 0 | 1.6 | 6.4 | 0.00 | 0.00 | 0.00 | 22 | 1017.2 |
| 20260905224602 | 34 | 47 | 0.0 | 4.8 | 0.00 | 0.00 | 0.00 | 22 | 1017.3 |
| 20260905224045 | 34 | 28 | 1.6 | 4.8 | 0.00 | 0.00 | 0.00 | 23 | 1017.2 |
| 20260905223541 | 34 | 61 | 0.0 | 4.8 | 0.00 | 0.00 | 0.00 | 22 | 1017.2 |
| 20260905223102 | 34 | 0 | 1.6 | 6.4 | 0.00 | 0.00 | 0.00 | 21 | 1017.3 |
| 20260905222546 | 34 | 0 | 0.0 | 6.4 | 0.00 | 0.00 | 0.00 | 21 | 1017.3 |
| 20260905222046 | 34 | 61 | 0.0 | 8.0 | 0.00 | 0.00 | 0.00 | 24 | 1017.4 |
| 20260905221624 | 33 | 0 | 0.0 | 11.3 | 0.00 | 0.00 | 0.00 | 23 | 1017.4 |